{"data":{"norad_id":45386,"epoch":"2026-09-20T06:00:02.000160Z","epoch_age_seconds":36146,"freshness":"FRESH","line1":"1 45386U 20019AC  26263.25002315  .01109131  63034-3  21213-2 0  9991","line2":"2 45386  53.0283 222.0285 0001866 113.3409 316.5072 16.00101772  5972","mean_motion":16.00101772,"eccentricity":0.0001866,"inclination_deg":53.0283,"raan_deg":222.0285,"arg_perigee_deg":113.3409,"mean_anomaly_deg":316.5072,"bstar":0.0021213,"rev_number":597,"period_min":89.994275689109,"perigee_km":272.89530039883,"apogee_km":275.37792891181,"semimajor_km":6652.2736146553,"source":"CELESTRAK","updated_at":"2026-09-20T09:00:38.232272Z"}}